Powrót do katalogu

CZ-6A DEB

AktywnyPO
NORAD 60770·DEBRIS·🇨🇳 China

Wystrzelony Aug 6, 2024 z Taiyuan Satellite Launch Center

Loading…

Następne Przeloty (najbliższe 24 godziny)

TLE

ŚwieżeSource: Space-Track

Epoka: Sep 14, 2026, 18:19 UTC

1 60770U 24140EV  26257.76349906  .00000400  00000-0  12802-3 0  9997
2 60770  89.0164 264.0306 0035164   0.1423 359.9781 14.37424649107879

Śledź CZ-6A DEB w czasie rzeczywistym z AllMySat

Download on the App Store